User: anonymous
Location: Unspecified
(0.0000°N, 0.0000°E)
Time: 01:03:29
(UTC+02:00)
Language:

Cosmos 1703 - Orbit

View from above orbital plane
View from above orbital plane
View from above satellite
View from above satellite

Ground track
Ground track

The orbit data is extracted from the following two-line orbital elements,

1 16262U 85108A   14206.05894645  .00001316  00000-0  88786-4 0  4855
2 16262 082.4907 205.9148 0011793 345.3910 014.6974 15.05785196559348
Epoch (UTC): 25 July 2014 01:24:52
Eccentricity: 0.0011793
inclination: 82.4907°
perigee height: 541 km
apogee height: 557 km
right ascension of ascending node: 205.9148°
argument of perigee: 345.3910°
revolutions per day: 15.05785196
mean anomaly at epoch: 14.6974°
orbit number at epoch: 55934

The dashed part of the orbit path shows where the satellite is in the earth's shadow,  

DLR